When you browse on this site, cookies collect data to enhance your experience and personalize the content and advertising you see.
Visit our Privacy Policy to learn more. By continuing to use the site, you agree to this use of cookies and data.
EN

Hourly Weather Vydne

Today, 12 August, Wednesday

Time Temperature Precipitation Wind Pressure Humidity
00:00 +21°C° 0 mm 2 mps 748 mmHg 67%
01:00 +20°C° 0 mm 2 mps 748 mmHg 71%
02:00 +20°C° 0 mm 2 mps 747 mmHg 75%
03:00 +19°C° 0 mm 2 mps 747 mmHg 77%
04:00 +19°C° 0 mm 2 mps 748 mmHg 79%
05:00 +19°C° 0 mm 2 mps 748 mmHg 81%
06:00 +20°C° 0.1 mm 3 mps 748 mmHg 76%
07:00 +21°C° 0.1 mm 3 mps 748 mmHg 72%
08:00 +23°C° 0.1 mm 4 mps 748 mmHg 68%
09:00 +25°C° 0.2 mm 4 mps 748 mmHg 62%
10:00 +26°C° 0.2 mm 4 mps 748 mmHg 56%
11:00 +27°C° 0.2 mm 5 mps 748 mmHg 49%
12:00 +28°C° 0.1 mm 5 mps 748 mmHg 46%
13:00 +28°C° 0.1 mm 5 mps 748 mmHg 44%
14:00 +28°C° 0.1 mm 5 mps 748 mmHg 41%
15:00 +27°C° 0 mm 6 mps 748 mmHg 42%
16:00 +26°C° 0 mm 6 mps 748 mmHg 43%
17:00 +26°C° 0 mm 6 mps 748 mmHg 43%
18:00 +23°C° 0 mm 6 mps 749 mmHg 47%
19:00 +21°C° 0 mm 5 mps 749 mmHg 51%
20:00 +19°C° 0 mm 5 mps 749 mmHg 55%
21:00 +18°C° 0 mm 4 mps 750 mmHg 59%
22:00 +17°C° 0 mm 4 mps 750 mmHg 63%
23:00 +16°C° 0 mm 3 mps 750 mmHg 67%

Tomorrow, 13 August, Thursday

Time Temperature Precipitation Wind Pressure Humidity
00:00 +16°C° 0 mm 3 mps 750 mmHg 71%
01:00 +14°C° 0 mm 3 mps 750 mmHg 75%
02:00 +13°C° 0 mm 3 mps 750 mmHg 79%
03:00 +13°C° 0 mm 3 mps 750 mmHg 83%
04:00 +13°C° 0 mm 3 mps 750 mmHg 86%
05:00 +12°C° 0 mm 3 mps 750 mmHg 89%
06:00 +14°C° 0 mm 4 mps 751 mmHg 81%
07:00 +17°C° 0 mm 4 mps 751 mmHg 72%
08:00 +19°C° 0 mm 5 mps 751 mmHg 64%
09:00 +20°C° 0 mm 5 mps 751 mmHg 57%
10:00 +21°C° 0 mm 5 mps 751 mmHg 51%
11:00 +23°C° 0 mm 5 mps 750 mmHg 44%
12:00 +23°C° 0 mm 5 mps 750 mmHg 42%
13:00 +25°C° 0 mm 5 mps 750 mmHg 39%
14:00 +25°C° 0 mm 5 mps 750 mmHg 37%
15:00 +25°C° 0 mm 5 mps 750 mmHg 38%
16:00 +25°C° 0 mm 5 mps 749 mmHg 39%
17:00 +23°C° 0 mm 5 mps 749 mmHg 40%
18:00 +21°C° 0 mm 5 mps 750 mmHg 46%
19:00 +20°C° 0 mm 4 mps 750 mmHg 51%
20:00 +18°C° 0 mm 3 mps 750 mmHg 56%
21:00 +18°C° 0 mm 3 mps 750 mmHg 57%
22:00 +17°C° 0 mm 2 mps 750 mmHg 58%
23:00 +17°C° 0 mm 2 mps 750 mmHg 59%

Day after tomorrow, 14 August, Friday

Time Temperature Precipitation Wind Pressure Humidity
00:00 +16°C° 0 mm 2 mps 750 mmHg 63%
01:00 +16°C° 0 mm 2 mps 750 mmHg 67%
02:00 +15°C° 0 mm 2 mps 750 mmHg 70%
03:00 +14°C° 0 mm 2 mps 750 mmHg 74%
04:00 +14°C° 0 mm 2 mps 750 mmHg 78%
05:00 +14°C° 0 mm 2 mps 750 mmHg 82%
06:00 +14°C° 0 mm 3 mps 750 mmHg 75%
07:00 +17°C° 0 mm 3 mps 750 mmHg 68%
08:00 +19°C° 0 mm 4 mps 750 mmHg 62%
09:00 +20°C° 0 mm 4 mps 750 mmHg 55%
10:00 +21°C° 0 mm 4 mps 750 mmHg 48%
11:00 +22°C° 0 mm 5 mps 750 mmHg 41%
12:00 +22°C° 0 mm 5 mps 750 mmHg 39%
13:00 +23°C° 0 mm 5 mps 750 mmHg 37%
14:00 +25°C° 0 mm 5 mps 750 mmHg 34%
15:00 +23°C° 0 mm 5 mps 750 mmHg 35%
16:00 +23°C° 0 mm 5 mps 749 mmHg 36%
17:00 +23°C° 0 mm 5 mps 749 mmHg 36%
18:00 +21°C° 0 mm 5 mps 750 mmHg 42%
19:00 +19°C° 0 mm 4 mps 750 mmHg 48%
20:00 +17°C° 0 mm 3 mps 750 mmHg 53%
21:00 +16°C° 0 mm 3 mps 751 mmHg 55%
22:00 +14°C° 0 mm 3 mps 751 mmHg 58%
23:00 +15°C° 0 mm 2 mps 751 mmHg 60%

15 August, Saturday

Time Temperature Precipitation Wind Pressure Humidity
00:00 +14°C° 0 mm 2 mps 751 mmHg 63%
01:00 +14°C° 0 mm 2 mps 751 mmHg 65%
02:00 +13°C° 0 mm 2 mps 751 mmHg 68%
03:00 +13°C° 0 mm 2 mps 751 mmHg 71%
04:00 +12°C° 0 mm 2 mps 751 mmHg 74%
05:00 +12°C° 0 mm 2 mps 751 mmHg 77%
06:00 +13°C° 0 mm 3 mps 751 mmHg 69%
07:00 +16°C° 0 mm 3 mps 752 mmHg 61%
08:00 +18°C° 0 mm 3 mps 752 mmHg 53%
09:00 +20°C° 0 mm 3 mps 752 mmHg 48%
10:00 +21°C° 0 mm 3 mps 752 mmHg 43%
11:00 +22°C° 0 mm 4 mps 752 mmHg 38%
12:00 +23°C° 0 mm 4 mps 752 mmHg 36%
13:00 +25°C° 0 mm 4 mps 752 mmHg 33%
14:00 +25°C° 0 mm 4 mps 751 mmHg 31%
15:00 +25°C° 0 mm 4 mps 751 mmHg 33%
16:00 +23°C° 0 mm 4 mps 751 mmHg 34%
17:00 +23°C° 0 mm 4 mps 751 mmHg 35%
18:00 +21°C° 0 mm 4 mps 751 mmHg 40%
19:00 +19°C° 0 mm 3 mps 751 mmHg 44%
20:00 +17°C° 0 mm 3 mps 751 mmHg 48%
21:00 +17°C° 0 mm 3 mps 751 mmHg 51%
22:00 +16°C° 0 mm 3 mps 752 mmHg 54%
23:00 +15°C° 0 mm 2 mps 752 mmHg 56%

16 August, Sunday

Time Temperature Precipitation Wind Pressure Humidity
00:00 +15°C° 0 mm 2 mps 752 mmHg 58%
01:00 +14°C° 0 mm 2 mps 752 mmHg 61%
02:00 +13°C° 0 mm 2 mps 752 mmHg 63%
03:00 +13°C° 0 mm 2 mps 752 mmHg 64%
04:00 +13°C° 0 mm 2 mps 752 mmHg 65%
05:00 +13°C° 0 mm 2 mps 752 mmHg 66%
06:00 +15°C° 0 mm 2 mps 752 mmHg 61%
07:00 +17°C° 0 mm 3 mps 752 mmHg 56%
08:00 +19°C° 0 mm 3 mps 752 mmHg 51%
09:00 +21°C° 0 mm 4 mps 752 mmHg 47%
10:00 +22°C° 0 mm 4 mps 752 mmHg 43%
11:00 +25°C° 0 mm 4 mps 752 mmHg 39%
12:00 +25°C° 0 mm 4 mps 752 mmHg 38%
13:00 +25°C° 0 mm 4 mps 752 mmHg 38%
14:00 +25°C° 0 mm 4 mps 751 mmHg 37%
15:00 +25°C° 0 mm 4 mps 751 mmHg 37%
16:00 +25°C° 0 mm 4 mps 751 mmHg 38%
17:00 +25°C° 0 mm 4 mps 751 mmHg 38%
18:00 +22°C° 0 mm 3 mps 751 mmHg 42%
19:00 +21°C° 0 mm 3 mps 751 mmHg 46%
20:00 +19°C° 0 mm 2 mps 751 mmHg 50%
21:00 +19°C° 0 mm 2 mps 752 mmHg 52%
22:00 +18°C° 0 mm 2 mps 752 mmHg 55%
23:00 +17°C° 0 mm 2 mps 752 mmHg 57%

17 August, Monday

Time Temperature Precipitation Wind Pressure Humidity
00:00 +17°C° 0 mm 2 mps 752 mmHg 61%
01:00 +16°C° 0 mm 2 mps 752 mmHg 65%
02:00 +15°C° 0 mm 2 mps 752 mmHg 69%
03:00 +15°C° 0 mm 2 mps 752 mmHg 71%
04:00 +15°C° 0 mm 2 mps 752 mmHg 74%
05:00 +14°C° 0 mm 2 mps 752 mmHg 77%
06:00 +16°C° 0 mm 2 mps 752 mmHg 69%
07:00 +19°C° 0 mm 2 mps 752 mmHg 61%
08:00 +21°C° 0 mm 3 mps 753 mmHg 53%
09:00 +22°C° 0 mm 3 mps 753 mmHg 48%
10:00 +25°C° 0 mm 3 mps 752 mmHg 42%
11:00 +26°C° 0 mm 3 mps 752 mmHg 37%
12:00 +26°C° 0 mm 3 mps 752 mmHg 37%
13:00 +26°C° 0 mm 3 mps 752 mmHg 36%
14:00 +26°C° 0 mm 3 mps 752 mmHg 36%
15:00 +26°C° 0 mm 3 mps 752 mmHg 37%
16:00 +26°C° 0 mm 3 mps 751 mmHg 37%
17:00 +26°C° 0 mm 3 mps 751 mmHg 37%
18:00 +24°C° 0 mm 3 mps 751 mmHg 43%
19:00 +21°C° 0 mm 2 mps 751 mmHg 49%
20:00 +20°C° 0 mm 2 mps 751 mmHg 55%
21:00 +20°C° 0 mm 1 mps 752 mmHg 56%
22:00 +20°C° 0 mm 1 mps 752 mmHg 57%
23:00 +20°C° 0 mm 1 mps 752 mmHg 58%
Show more